This demonstration page uses our WeatherBlox Daily Observations layout. Learn more.

Left ArrowRight Arrow

34.74481, -87.66753

Hourly Observations for October 6, 2019

Temp ( °F °C ) Dew Point ( °F °C ) Humidity (%) Winds ( mph kmh ) Pressure ( in mb ) Visibility ( mi km ) Precip ( " mm )
12:53 am 00:53 Mostly Clear 75 23.9 66 18.9 74 74 SE 9 15 30.03 1017 10 16 0.00 0.00
1:53 am 01:53 Mostly Clear 74 23.3 67 19.4 79 79 SE 10 17 30.03 1017 10 16 0.00 0.00
3:53 am 03:53 Clear 73 22.8 67 19.4 81 81 SE 6 9 30.02 1017 10 16 0.00 0.00
4:53 am 04:53 Mostly Clear 73 22.8 67 19.4 81 81 Calm 30.05 1018 10 16 0.00 0.00
5:08 am 05:08 Mostly Cloudy 74 23.3 67 19.4 79 79 Calm 30.07 1018 10 16 0.00 0.00
5:53 am 05:53 Cloudy 74 23.3 67 19.4 79 79 ESE 5 7 30.07 1018 10 16 0.00 0.00
6:53 am 06:53 Cloudy 74 23.3 67 19.4 79 79 ESE 5 7 30.10 1019 10 16 0.00 0.00
7:53 am 07:53 Cloudy 74 23.3 67 19.4 79 79 SE 7 11 30.11 1020 10 16 0.00 0.00
8:53 am 08:53 Cloudy 76 24.4 67 19.4 74 74 S 8 13 30.11 1020 10 16 0.00 0.00
9:53 am 09:53 Partly Cloudy 79 26.1 66 18.9 65 65 S 12 19 30.11 1020 10 16 0.00 0.00
10:53 am 10:53 Mostly Cloudy 83 28.3 66 18.9 57 57 S 14 22 30.11 1020 10 16 0.00 0.00
11:53 am 11:53 Mostly Sunny 87 30.6 67 19.4 51 51 S 10 17 30.09 1019 10 16 0.00 0.00
12:53 pm 12:53 Cloudy 86 30 65 18.3 49 49 SSE 5 7 30.07 1018 10 16 0.00 0.00
1:53 pm 13:53 Mostly Cloudy 88 31.1 65 18.3 46 46 S 10 17 30.04 1017 10 16 0.00 0.00
2:53 pm 14:53 Mostly Cloudy 88 31.1 66 18.9 48 48 S 12 19 30.02 1017 10 16 0.00 0.00
3:28 pm 15:28 Mostly Cloudy with Thunderstorms 88 31.1 65 18.3 46 46 SSE 10 17 30.00 1016 10 16 0.00 0.00
3:53 pm 15:53 Partly Cloudy with Thunderstorms 87 30.6 65 18.3 48 48 S 8 13 30.01 1016 10 16 0.00 0.00
4:07 pm 16:07 Mostly Cloudy with Nearby Thunderstorms 85 29.4 66 18.9 53 53 NNW 8 13 30.00 1016 10 16 0.00 0.00
4:22 pm 16:22 Mostly Cloudy 83 28.3 66 18.9 57 57 N 5 7 30.00 1016 10 16 0.00 0.00
4:53 pm 16:53 Mostly Sunny 84 28.9 67 19.4 57 57 NE 6 9 30.02 1017 10 16 0.00 0.00
5:53 pm 17:53 Mostly Cloudy 79 26.1 67 19.4 67 67 ENE 8 13 30.01 1016 10 16 0.00 0.00
6:53 pm 18:53 Mostly Cloudy 78 25.6 67 19.4 69 69 E 3 6 30.01 1016 10 16 0.00 0.00
7:53 pm 19:53 Clear 78 25.6 67 19.4 69 69 SSE 5 7 30.02 1017 10 16 0.00 0.00
8:53 pm 20:53 Clear 78 25.6 65 18.3 64 64 Calm 30.03 1017 10 16 0.00 0.00
9:53 pm 21:53 Clear 77 25 66 18.9 69 69 SE 9 15 30.03 1017 10 16 0.00 0.00
10:53 pm 22:53 Mostly Clear 77 25 66 18.9 69 69 SE 7 11 30.04 1017 10 16 0.00 0.00
11:53 pm 23:53 Partly Cloudy 77 25 65 18.3 66 66 SSE 9 15 30.05 1018 10 16 0.00 0.00

Powered by AerisWeather